Location: College Park
(38.9810°N, 76.9370°W)
Time: 10:23:10
(UTC-05:00)

ISS - Visible Passes

Search period start: 11 December 2017 00:00
Search period end: 21 December 2017 00:00
Orbit: 402 x 407 km, 51.6° (Epoch: 11 December)

Date Brightness Start Highest point End Pass type
(mag) Time Alt. Az. Time Alt. Az. Time Alt. Az.
11 Dec -1.9 18:25:00 10° NNW 18:26:30 19° N 18:26:30 19° N visible
12 Dec -2.0 17:33:02 10° NNW 17:35:18 17° NNE 17:36:44 13° NE visible
12 Dec -0.9 19:08:51 10° NW 19:09:25 14° NW 19:09:25 14° NW visible
13 Dec -3.6 18:16:39 10° NW 18:19:50 49° NNE 18:19:50 49° NNE visible
14 Dec -2.8 17:24:34 10° NNW 17:27:29 28° NNE 17:30:23 10° E visible
14 Dec -1.7 19:01:00 10° WNW 19:03:13 28° WSW 19:03:13 28° WSW visible
15 Dec -3.5 18:08:30 10° WNW 18:11:46 66° SW 18:14:17 15° SE visible
16 Dec -3.8 17:16:13 10° NW 17:19:28 61° NE 17:22:43 10° ESE visible
16 Dec -0.6 18:54:04 10° W 18:55:34 13° SW 18:57:04 10° SSW visible
17 Dec -1.4 18:00:43 10° WNW 18:03:28 25° SW 18:06:11 10° S visible
